| time (UTC) | temp F | wind direction | speed knots | gust knots | rain 1hr in | rain 24hr in | rain mn in | humidity % | barometer mb |
| 20260510044458 | 43 | 184 | 0.0 | 3.5 | 0.00 | 0.38 | 0.00 | 96 | 1011.9 |
| 20260510043000 | 42 | 184 | 0.0 | 0.0 | 0.00 | 0.38 | 0.00 | 96 | 1011.6 |
| 20260510041502 | 42 | 184 | 0.0 | 0.0 | 0.00 | 0.38 | 0.00 | 95 | 1011.2 |
| 20260510040005 | 43 | 184 | 0.0 | 0.0 | 0.00 | 0.38 | 0.00 | 95 | 1011.2 |
| 20260510034503 | 43 | 184 | 0.0 | 0.0 | 0.00 | 0.39 | 0.38 | 95 | 1011.2 |
| 20260510033001 | 43 | 184 | 0.0 | 0.0 | 0.00 | 0.39 | 0.38 | 95 | 1011.1 |
| 20260510031500 | 44 | 184 | 0.0 | 0.0 | 0.00 | 0.39 | 0.38 | 95 | 1011.0 |
| 20260510030004 | 44 | 184 | 0.0 | 0.0 | 0.00 | 0.39 | 0.38 | 94 | 1011.2 |
| 20260510024501 | 45 | 185 | 0.0 | 0.0 | 0.00 | 0.39 | 0.38 | 94 | 1011.1 |
| 20260510023000 | 45 | 184 | 0.0 | 0.0 | 0.00 | 0.39 | 0.38 | 93 | 1011.1 |
| 20260510021502 | 46 | 184 | 0.0 | 0.0 | 0.00 | 0.39 | 0.38 | 93 | 1011.0 |
| 20260510014500 | 48 | 184 | 0.0 | 0.0 | 0.00 | 0.39 | 0.38 | 93 | 1010.9 |
| 20260510013004 | 48 | 184 | 0.0 | 0.0 | 0.00 | 0.39 | 0.38 | 92 | 1010.9 |
| 20260510011501 | 49 | 184 | 0.0 | 0.0 | 0.00 | 0.39 | 0.38 | 91 | 1010.4 |
| 20260510010003 | 50 | 184 | 0.0 | 0.0 | 0.00 | 0.39 | 0.38 | 90 | 1010.3 |
| 20260510001501 | 53 | 184 | 0.0 | 0.0 | 0.00 | 0.39 | 0.38 | 85 | 1010.1 |
| 20260510000005 | 54 | 185 | 0.0 | 3.5 | 0.00 | 0.39 | 0.38 | 79 | 1010.1 |
| 20260509234501 | 56 | 154 | 0.9 | 7.8 | 0.00 | 0.39 | 0.38 | 77 | 1009.7 |
| 20260509231503 | 58 | 186 | 0.0 | 2.6 | 0.00 | 0.39 | 0.38 | 76 | 1009.3 |
| 20260509230003 | 57 | 186 | 0.9 | 3.5 | 0.00 | 0.39 | 0.38 | 75 | 1009.4 |
| 20260509224501 | 56 | 163 | 2.6 | 6.1 | 0.00 | 0.40 | 0.38 | 77 | 1009.2 |
| 20260509223001 | 56 | 178 | 3.5 | 9.6 | 0.00 | 0.40 | 0.38 | 77 | 1009.5 |
| 20260509221502 | 56 | 195 | 1.7 | 9.6 | 0.00 | 0.40 | 0.38 | 80 | 1009.6 |
| 20260509220004 | 55 | 203 | 2.6 | 6.1 | 0.00 | 0.40 | 0.38 | 83 | 1009.7 |
| 20260509214501 | 54 | 232 | 3.5 | 6.1 | 0.00 | 0.40 | 0.38 | 84 | 1009.8 |
| 20260509213004 | 55 | 180 | 5.2 | 8.7 | 0.00 | 0.40 | 0.38 | 83 | 1010.0 |
| 20260509211503 | 55 | 214 | 2.6 | 13.9 | 0.00 | 0.40 | 0.38 | 88 | 1010.0 |
| 20260509210003 | 54 | 202 | 1.7 | 6.1 | 0.00 | 0.40 | 0.38 | 92 | 1010.1 |
| 20260509204502 | 53 | 172 | 0.9 | 5.2 | 0.00 | 0.40 | 0.38 | 93 | 1010.3 |
| 20260509203002 | 52 | 215 | 1.7 | 5.2 | 0.01 | 0.40 | 0.38 | 93 | 1010.3 |
| 20260509201459 | 51 | 216 | 0.9 | 3.5 | 0.01 | 0.40 | 0.38 | 93 | 1010.3 |
| 20260509200004 | 51 | 216 | 0.0 | 2.6 | 0.03 | 0.40 | 0.38 | 93 | 1010.4 |
| 20260509194501 | 51 | 216 | 0.0 | 0.0 | 0.05 | 0.40 | 0.38 | 94 | 1010.6 |
| 20260509191500 | 50 | 216 | 0.9 | 3.5 | 0.08 | 0.39 | 0.37 | 93 | 1011.1 |
| 20260509184500 | 50 | 155 | 0.9 | 2.6 | 0.09 | 0.35 | 0.33 | 94 | 1011.7 |
| 20260509183000 | 50 | 146 | 0.9 | 2.6 | 0.08 | 0.33 | 0.31 | 94 | 1011.3 |
| 20260509181504 | 50 | 155 | 0.0 | 2.6 | 0.09 | 0.31 | 0.29 | 95 | 1011.4 |
| 20260509180006 | 50 | 155 | 0.0 | 2.6 | 0.10 | 0.29 | 0.27 | 95 | 1011.6 |
| 20260509174501 | 50 | 155 | 0.0 | 4.3 | 0.09 | 0.26 | 0.24 | 95 | 1011.5 |
| 20260509173001 | 50 | 156 | 0.0 | 4.3 | 0.09 | 0.25 | 0.23 | 95 | 1011.6 |
| 20260509170002 | 50 | 87 | 0.0 | 2.6 | 0.06 | 0.19 | 0.17 | 94 | 1011.5 |
| 20260509164500 | 50 | 87 | 0.9 | 3.5 | 0.04 | 0.17 | 0.15 | 94 | 1011.6 |
| 20260509163000 | 50 | 163 | 1.7 | 6.1 | 0.04 | 0.16 | 0.14 | 94 | 1011.8 |
| 20260509154501 | 50 | 107 | 0.0 | 1.7 | 0.02 | 0.13 | 0.11 | 94 | 1011.8 |
| 20260509153002 | 50 | 97 | 0.9 | 3.5 | 0.02 | 0.12 | 0.10 | 94 | 1011.9 |
| 20260509151500 | 50 | 217 | 0.0 | 4.3 | 0.03 | 0.12 | 0.10 | 94 | 1011.9 |
| 20260509150005 | 49 | 219 | 0.9 | 4.3 | 0.03 | 0.11 | 0.09 | 94 | 1011.9 |
| 20260509141500 | 49 | 220 | 0.0 | 3.5 | 0.03 | 0.09 | 0.07 | 94 | 1012.2 |
| 20260509134459 | 49 | 262 | 0.0 | 0.0 | 0.02 | 0.07 | 0.05 | 93 | 1011.8 |
| 20260509132959 | 49 | 262 | 0.0 | 0.0 | 0.01 | 0.06 | 0.04 | 95 | 1011.7 |
| 20260509131500 | 49 | 262 | 0.0 | 0.0 | 0.01 | 0.06 | 0.04 | 95 | 1011.7 |
| 20260509130000 | 48 | 262 | 0.0 | 0.9 | 0.00 | 0.05 | 0.03 | 96 | 1011.5 |
| 20260509123001 | 48 | 262 | 0.0 | 0.0 | 0.00 | 0.05 | 0.03 | 97 | 1011.7 |
| 20260509121501 | 47 | 262 | 0.0 | 0.0 | 0.01 | 0.05 | 0.03 | 97 | 1011.8 |
| 20260509120003 | 47 | 262 | 0.0 | 1.7 | 0.01 | 0.05 | 0.03 | 97 | 1011.8 |
| 20260509113000 | 46 | 262 | 0.0 | 0.0 | 0.01 | 0.04 | 0.02 | 97 | 1011.8 |
| 20260509111459 | 46 | 262 | 0.0 | 0.0 | 0.01 | 0.04 | 0.02 | 97 | 1011.8 |
| 20260509110000 | 46 | 262 | 0.0 | 0.0 | 0.01 | 0.04 | 0.02 | 97 | 1011.7 |
| 20260509104501 | 46 | 261 | 0.0 | 1.7 | 0.01 | 0.04 | 0.02 | 97 | 1011.7 |
| 20260509103002 | 46 | 261 | 0.0 | 2.6 | 0.00 | 0.03 | 0.01 | 96 | 1011.6 |
| 20260509101503 | 45 | 261 | 0.0 | 0.0 | 0.00 | 0.03 | 0.01 | 96 | 1011.4 |
| 20260509100004 | 45 | 261 | 0.0 | 0.0 | 0.00 | 0.03 | 0.01 | 96 | 1011.4 |
| 20260509094459 | 45 | 261 | 0.0 | 0.0 | 0.00 | 0.03 | 0.01 | 96 | 1011.5 |
| 20260509092959 | 45 | 261 | 0.0 | 0.0 | 0.00 | 0.03 | 0.01 | 96 | 1011.4 |
| 20260509081501 | 46 | 261 | 0.0 | 1.7 | 0.00 | 0.03 | 0.01 | 96 | 1012.5 |
| 20260509074458 | 46 | 261 | 0.0 | 0.0 | 0.00 | 0.03 | 0.01 | 95 | 1012.5 |
| 20260509073001 | 46 | 261 | 0.0 | 0.0 | 0.00 | 0.03 | 0.01 | 95 | 1012.8 |
| 20260509071459 | 45 | 261 | 0.0 | 0.0 | 0.00 | 0.03 | 0.01 | 95 | 1012.7 |
| 20260509064458 | 46 | 281 | 0.0 | 0.0 | 0.01 | 0.03 | 0.01 | 95 | 1012.2 |
| 20260509062957 | 46 | 281 | 0.9 | 2.6 | 0.01 | 0.03 | 0.01 | 95 | 1012.4 |
| 20260509061459 | 46 | 281 | 0.9 | 3.5 | 0.01 | 0.03 | 0.01 | 95 | 1012.7 |
| 20260509060001 | 46 | 243 | 0.9 | 3.5 | 0.00 | 0.02 | 0.00 | 95 | 1013.1 |
| 20260509054501 | 46 | 158 | 0.9 | 2.6 | 0.00 | 0.02 | 0.00 | 96 | 1013.5 |
| 20260509051500 | 44 | 158 | 0.0 | 1.7 | 0.00 | 0.02 | 0.00 | 95 | 1013.3 |